This demonstration page uses our WeatherBlox Daily Observations layout. Learn more.

Left ArrowRight Arrow

38.89511, -77.03637

Hourly Observations for June 30, 2022

Temp ( °F °C ) Dew Point ( °F °C ) Humidity (%) Winds ( mph kmh ) Pressure ( in mb ) Visibility ( mi km ) Precip ( " mm )
12:52 am 00:52 Partly Cloudy 76 24.4 67 19.4 74 74 S 8 13 30.22 1023 10 16 0.00 0.00
1:52 am 01:52 Partly Cloudy 75 23.9 67 19.4 76 76 SSW 7 11 30.21 1023 10 16 0.00 0.00
2:52 am 02:52 Partly Cloudy 74 23.3 67 19.4 79 79 S 8 13 30.21 1023 10 16 0.00 0.00
3:52 am 03:52 Partly Cloudy 74 23.3 67 19.4 79 79 S 3 6 30.21 1023 10 16 0.00 0.00
4:52 am 04:52 Mostly Clear 73 22.8 67 19.4 81 81 Calm 30.21 1023 10 16 0.00 0.00
5:52 am 05:52 Mostly Sunny 73 22.8 67 19.4 81 81 SW 3 6 30.21 1023 10 16 0.00 0.00
6:52 am 06:52 Mostly Sunny 73 22.8 68 20 84 84 SSW 3 6 30.22 1023 10 16 0.00 0.00
7:52 am 07:52 Mostly Sunny 77 25 67 19.4 71 71 Calm 30.23 1024 10 16 0.00 0.00
8:52 am 08:52 Sunny 78 25.6 68 20 71 71 ESE 3 6 30.23 1024 10 16 0.00 0.00
9:52 am 09:52 Sunny 84 28.9 66 18.9 55 55 NNE 3 6 30.23 1024 10 16 0.00 0.00
10:52 am 10:52 Mostly Sunny 87 30.6 59 15 39 39 NNE 7 11 30.23 1024 10 16 0.00 0.00
11:52 am 11:52 Mostly Sunny 88 31.1 58 14.4 36 36 E 6 9 30.22 1024 10 16 0.00 0.00
12:52 pm 12:52 Mostly Sunny 88 31.1 55 12.8 33 33 Calm 30.21 1023 10 16 0.00 0.00
1:52 pm 13:52 Partly Cloudy 89 31.7 61 16.1 39 39 S 9 15 30.19 1022 10 16 0.00 0.00
2:52 pm 14:52 Mostly Sunny 89 31.7 62 16.7 41 41 S 8 13 30.16 1022 10 16 0.00 0.00
3:52 pm 15:52 Sunny 89 31.7 61 16.1 39 39 SSE 10 17 30.14 1021 10 16 0.00 0.00
4:52 pm 16:52 Mostly Sunny 87 30.6 61 16.1 42 42 S 8 13 30.13 1020 10 16 0.00 0.00
5:52 pm 17:52 Mostly Sunny 88 31.1 64 17.8 45 45 SSE 9 15 30.12 1020 10 16 0.00 0.00
6:52 pm 18:52 Partly Cloudy 87 30.6 66 18.9 50 50 S 9 15 30.13 1020 10 16 0.00 0.00
7:52 pm 19:52 Mostly Sunny 85 29.4 66 18.9 53 53 S 9 15 30.13 1020 10 16 0.00 0.00
8:52 pm 20:52 Mostly Clear 82 27.8 68 20 63 63 S 6 9 30.13 1020 10 16 0.00 0.00
9:52 pm 21:52 Mostly Clear 81 27.2 67 19.4 62 62 SSE 8 13 30.14 1021 10 16 0.00 0.00
10:52 pm 22:52 Mostly Clear 79 26.1 69 20.6 72 72 SSW 8 13 30.14 1021 10 16 0.00 0.00
11:52 pm 23:52 Mostly Cloudy 79 26.1 70 21.1 74 74 S 8 13 30.14 1021 10 16 0.00 0.00

Powered by AerisWeather